owner,sensor,date,latitude,longitude,sea_water_turbidity,qcFlag 
NERRS,ioos:station:NOAA.NERRS:rkblhwq:1,2016-04-01T00:45:00Z,26.0257,-81.7332,49.0,1111122 
NERRS,ioos:station:NOAA.NERRS:rkblhwq:1,2016-04-01T01:45:00Z,26.0257,-81.7332,51.0,1111122 
NERRS,ioos:station:NOAA.NERRS:rkblhwq:1,2016-04-01T02:45:00Z,26.0257,-81.7332,51.0,1111122 
NERRS,ioos:station:NOAA.NERRS:rkblhwq:1,2016-04-01T03:45:00Z,26.0257,-81.7332,47.0,1111122 
NERRS,ioos:station:NOAA.NERRS:rkblhwq:1,2016-04-01T04:45:00Z,26.0257,-81.7332,54.0,1111122 
NERRS,ioos:station:NOAA.NERRS:rkblhwq:1,2016-04-01T05:45:00Z,26.0257,-81.7332,51.0,1111122 
NERRS,ioos:station:NOAA.NERRS:rkblhwq:1,2016-04-01T06:45:00Z,26.0257,-81.7332,49.0,1111122 
NERRS,ioos:station:NOAA.NERRS:rkblhwq:1,2016-04-01T07:45:00Z,26.0257,-81.7332,51.0,1111122 
NERRS,ioos:station:NOAA.NERRS:rkblhwq:1,2016-04-01T08:45:00Z,26.0257,-81.7332,50.0,1111122 
NERRS,ioos:station:NOAA.NERRS:rkblhwq:1,2016-04-01T09:45:00Z,26.0257,-81.7332,55.0,1111122 
NERRS,ioos:station:NOAA.NERRS:rkblhwq:1,2016-04-01T10:45:00Z,26.0257,-81.7332,53.0,1111122 
NERRS,ioos:station:NOAA.NERRS:rkblhwq:1,2016-04-01T11:45:00Z,26.0257,-81.7332,53.0,1111122 
NERRS,ioos:station:NOAA.NERRS:rkblhwq:1,2016-04-01T12:45:00Z,26.0257,-81.7332,52.0,1111122 
NERRS,ioos:station:NOAA.NERRS:rkblhwq:1,2016-04-01T13:45:00Z,26.0257,-81.7332,52.0,1111122 
NERRS,ioos:station:NOAA.NERRS:rkblhwq:1,2016-04-01T14:45:00Z,26.0257,-81.7332,49.0,1111122 
NERRS,ioos:station:NOAA.NERRS:rkblhwq:1,2016-04-01T15:45:00Z,26.0257,-81.7332,61.0,1111122 
NERRS,ioos:station:NOAA.NERRS:rkblhwq:1,2016-04-01T16:45:00Z,26.0257,-81.7332,59.0,1111122 
NERRS,ioos:station:NOAA.NERRS:rkblhwq:1,2016-04-01T17:45:00Z,26.0257,-81.7332,55.0,1111122 
NERRS,ioos:station:NOAA.NERRS:rkblhwq:1,2016-04-01T18:45:00Z,26.0257,-81.7332,52.0,1111122 
NERRS,ioos:station:NOAA.NERRS:rkblhwq:1,2016-04-01T19:45:00Z,26.0257,-81.7332,54.0,1111122 
NERRS,ioos:station:NOAA.NERRS:rkblhwq:1,2016-04-01T20:45:00Z,26.0257,-81.7332,54.0,1111122 
NERRS,ioos:station:NOAA.NERRS:rkblhwq:1,2016-04-01T21:45:00Z,26.0257,-81.7332,64.0,1111122 
NERRS,ioos:station:NOAA.NERRS:rkblhwq:1,2016-04-01T22:45:00Z,26.0257,-81.7332,59.0,1111122 
NERRS,ioos:station:NOAA.NERRS:rkblhwq:1,2016-04-01T23:45:00Z,26.0257,-81.7332,57.0,1111122 
NERRS,ioos:station:NOAA.NERRS:rkblhwq:1,2016-04-02T00:45:00Z,26.0257,-81.7332,50.0,1111122 
NERRS,ioos:station:NOAA.NERRS:rkblhwq:1,2016-04-02T01:45:00Z,26.0257,-81.7332,56.0,1111122 
NERRS,ioos:station:NOAA.NERRS:rkblhwq:1,2016-04-02T02:45:00Z,26.0257,-81.7332,49.0,1111122 
NERRS,ioos:station:NOAA.NERRS:rkblhwq:1,2016-04-02T03:45:00Z,26.0257,-81.7332,50.0,1111122 
NERRS,ioos:station:NOAA.NERRS:rkblhwq:1,2016-04-02T04:45:00Z,26.0257,-81.7332,51.0,1111122 
NERRS,ioos:station:NOAA.NERRS:rkblhwq:1,2016-04-02T05:45:00Z,26.0257,-81.7332,73.0,1111122 
NERRS,ioos:station:NOAA.NERRS:rkblhwq:1,2016-04-02T06:45:00Z,26.0257,-81.7332,48.0,1111122 
NERRS,ioos:station:NOAA.NERRS:rkblhwq:1,2016-04-02T07:45:00Z,26.0257,-81.7332,56.0,1111122 
NERRS,ioos:station:NOAA.NERRS:rkblhwq:1,2016-04-02T08:45:00Z,26.0257,-81.7332,85.0,1111122 
NERRS,ioos:station:NOAA.NERRS:rkblhwq:1,2016-04-02T09:45:00Z,26.0257,-81.7332,51.0,1111122 
NERRS,ioos:station:NOAA.NERRS:rkblhwq:1,2016-04-02T10:45:00Z,26.0257,-81.7332,56.0,1111122 
NERRS,ioos:station:NOAA.NERRS:rkblhwq:1,2016-04-02T11:45:00Z,26.0257,-81.7332,55.0,1111122 
NERRS,ioos:station:NOAA.NERRS:rkblhwq:1,2016-04-02T12:45:00Z,26.0257,-81.7332,58.0,1111122 
NERRS,ioos:station:NOAA.NERRS:rkblhwq:1,2016-04-02T13:45:00Z,26.0257,-81.7332,62.0,1111122 
NERRS,ioos:station:NOAA.NERRS:rkblhwq:1,2016-04-02T14:45:00Z,26.0257,-81.7332,52.0,1111122 
NERRS,ioos:station:NOAA.NERRS:rkblhwq:1,2016-04-02T15:45:00Z,26.0257,-81.7332,47.0,1111122 
NERRS,ioos:station:NOAA.NERRS:rkblhwq:1,2016-04-02T16:45:00Z,26.0257,-81.7332,51.0,1111122 
NERRS,ioos:station:NOAA.NERRS:rkblhwq:1,2016-04-02T17:45:00Z,26.0257,-81.7332,53.0,1111122 
NERRS,ioos:station:NOAA.NERRS:rkblhwq:1,2016-04-02T18:45:00Z,26.0257,-81.7332,56.0,1111122 
NERRS,ioos:station:NOAA.NERRS:rkblhwq:1,2016-04-02T19:45:00Z,26.0257,-81.7332,51.0,1111122 
NERRS,ioos:station:NOAA.NERRS:rkblhwq:1,2016-04-02T20:45:00Z,26.0257,-81.7332,50.0,1111122 
NERRS,ioos:station:NOAA.NERRS:rkblhwq:1,2016-04-02T21:45:00Z,26.0257,-81.7332,51.0,1111122 
NERRS,ioos:station:NOAA.NERRS:rkblhwq:1,2016-04-02T22:45:00Z,26.0257,-81.7332,50.0,1111122 
NERRS,ioos:station:NOAA.NERRS:rkblhwq:1,2016-04-02T23:45:00Z,26.0257,-81.7332,47.0,1111122 
NERRS,ioos:station:NOAA.NERRS:rkblhwq:1,2016-04-03T00:45:00Z,26.0257,-81.7332,54.0,1111122 
NERRS,ioos:station:NOAA.NERRS:rkblhwq:1,2016-04-03T01:45:00Z,26.0257,-81.7332,54.0,1111122 
NERRS,ioos:station:NOAA.NERRS:rkblhwq:1,2016-04-03T02:45:00Z,26.0257,-81.7332,48.0,1111122 
NERRS,ioos:station:NOAA.NERRS:rkblhwq:1,2016-04-03T03:45:00Z,26.0257,-81.7332,52.0,1111122 
NERRS,ioos:station:NOAA.NERRS:rkblhwq:1,2016-04-03T04:45:00Z,26.0257,-81.7332,49.0,1111122 
NERRS,ioos:station:NOAA.NERRS:rkblhwq:1,2016-04-03T05:45:00Z,26.0257,-81.7332,42.0,1111122 
NERRS,ioos:station:NOAA.NERRS:rkblhwq:1,2016-04-03T06:45:00Z,26.0257,-81.7332,42.0,1111122 
NERRS,ioos:station:NOAA.NERRS:rkblhwq:1,2016-04-03T07:45:00Z,26.0257,-81.7332,44.0,1111122 
NERRS,ioos:station:NOAA.NERRS:rkblhwq:1,2016-04-03T08:45:00Z,26.0257,-81.7332,51.0,1111122 
NERRS,ioos:station:NOAA.NERRS:rkblhwq:1,2016-04-03T09:45:00Z,26.0257,-81.7332,45.0,1111122 
NERRS,ioos:station:NOAA.NERRS:rkblhwq:1,2016-04-03T10:45:00Z,26.0257,-81.7332,51.0,1111122 
NERRS,ioos:station:NOAA.NERRS:rkblhwq:1,2016-04-03T11:45:00Z,26.0257,-81.7332,54.0,1111122 
NERRS,ioos:station:NOAA.NERRS:rkblhwq:1,2016-04-03T12:45:00Z,26.0257,-81.7332,56.0,1111122 
NERRS,ioos:station:NOAA.NERRS:rkblhwq:1,2016-04-03T13:45:00Z,26.0257,-81.7332,55.0,1111122 
NERRS,ioos:station:NOAA.NERRS:rkblhwq:1,2016-04-03T14:45:00Z,26.0257,-81.7332,51.0,1111122 
NERRS,ioos:station:NOAA.NERRS:rkblhwq:1,2016-04-03T15:45:00Z,26.0257,-81.7332,51.0,1111122 
NERRS,ioos:station:NOAA.NERRS:rkblhwq:1,2016-04-03T16:45:00Z,26.0257,-81.7332,57.0,1111122 
NERRS,ioos:station:NOAA.NERRS:rkblhwq:1,2016-04-03T17:45:00Z,26.0257,-81.7332,71.0,1111122 
NERRS,ioos:station:NOAA.NERRS:rkblhwq:1,2016-04-03T18:45:00Z,26.0257,-81.7332,51.0,1111122 
NERRS,ioos:station:NOAA.NERRS:rkblhwq:1,2016-04-03T19:45:00Z,26.0257,-81.7332,57.0,1111122 
NERRS,ioos:station:NOAA.NERRS:rkblhwq:1,2016-04-03T20:45:00Z,26.0257,-81.7332,97.0,1111122 
NERRS,ioos:station:NOAA.NERRS:rkblhwq:1,2016-04-03T21:45:00Z,26.0257,-81.7332,51.0,1111122 
NERRS,ioos:station:NOAA.NERRS:rkblhwq:1,2016-04-03T22:45:00Z,26.0257,-81.7332,64.0,1111122 
NERRS,ioos:station:NOAA.NERRS:rkblhwq:1,2016-04-03T23:45:00Z,26.0257,-81.7332,73.0,1111122 
NERRS,ioos:station:NOAA.NERRS:rkblhwq:1,2016-04-04T00:45:00Z,26.0257,-81.7332,70.0,1111122 
NERRS,ioos:station:NOAA.NERRS:rkblhwq:1,2016-04-04T01:45:00Z,26.0257,-81.7332,95.0,1111122 
NERRS,ioos:station:NOAA.NERRS:rkblhwq:1,2016-04-04T02:45:00Z,26.0257,-81.7332,72.0,1111122 
NERRS,ioos:station:NOAA.NERRS:rkblhwq:1,2016-04-04T03:45:00Z,26.0257,-81.7332,84.0,1111122 
NERRS,ioos:station:NOAA.NERRS:rkblhwq:1,2016-04-04T04:45:00Z,26.0257,-81.7332,88.0,1111122 
NERRS,ioos:station:NOAA.NERRS:rkblhwq:1,2016-04-04T05:45:00Z,26.0257,-81.7332,66.0,1111122 
NERRS,ioos:station:NOAA.NERRS:rkblhwq:1,2016-04-04T06:45:00Z,26.0257,-81.7332,76.0,1111122 
NERRS,ioos:station:NOAA.NERRS:rkblhwq:1,2016-04-04T07:45:00Z,26.0257,-81.7332,99.0,1111122 
NERRS,ioos:station:NOAA.NERRS:rkblhwq:1,2016-04-04T08:45:00Z,26.0257,-81.7332,90.0,1111122 
NERRS,ioos:station:NOAA.NERRS:rkblhwq:1,2016-04-04T09:45:00Z,26.0257,-81.7332,128.0,1111122 
NERRS,ioos:station:NOAA.NERRS:rkblhwq:1,2016-04-04T10:45:00Z,26.0257,-81.7332,139.0,1111122 
NERRS,ioos:station:NOAA.NERRS:rkblhwq:1,2016-04-04T11:45:00Z,26.0257,-81.7332,338.0,1111122 
NERRS,ioos:station:NOAA.NERRS:rkblhwq:1,2016-04-04T12:45:00Z,26.0257,-81.7332,283.0,1111122 
NERRS,ioos:station:NOAA.NERRS:rkblhwq:1,2016-04-04T13:45:00Z,26.0257,-81.7332,162.0,1111122 
NERRS,ioos:station:NOAA.NERRS:rkblhwq:1,2016-04-04T14:45:00Z,26.0257,-81.7332,185.0,1111122 
NERRS,ioos:station:NOAA.NERRS:rkblhwq:1,2016-04-04T15:45:00Z,26.0257,-81.7332,265.0,1111122 
NERRS,ioos:station:NOAA.NERRS:rkblhwq:1,2016-04-04T16:45:00Z,26.0257,-81.7332,353.0,1111122 
NERRS,ioos:station:NOAA.NERRS:rkblhwq:1,2016-04-04T17:45:00Z,26.0257,-81.7332,449.0,1111122 
NERRS,ioos:station:NOAA.NERRS:rkblhwq:1,2016-04-04T18:45:00Z,26.0257,-81.7332,242.0,1111122 
NERRS,ioos:station:NOAA.NERRS:rkblhwq:1,2016-04-04T19:45:00Z,26.0257,-81.7332,382.0,1111122 
NERRS,ioos:station:NOAA.NERRS:rkblhwq:1,2016-04-04T20:45:00Z,26.0257,-81.7332,543.0,1111122 
NERRS,ioos:station:NOAA.NERRS:rkblhwq:1,2016-04-04T21:45:00Z,26.0257,-81.7332,462.0,1111122 
NERRS,ioos:station:NOAA.NERRS:rkblhwq:1,2016-04-04T22:45:00Z,26.0257,-81.7332,664.0,1111122 
NERRS,ioos:station:NOAA.NERRS:rkblhwq:1,2016-04-04T23:45:00Z,26.0257,-81.7332,564.0,1111122 
NERRS,ioos:station:NOAA.NERRS:rkblhwq:1,2016-04-05T00:45:00Z,26.0257,-81.7332,522.0,1111122 
NERRS,ioos:station:NOAA.NERRS:rkblhwq:1,2016-04-05T01:45:00Z,26.0257,-81.7332,538.0,1111122 
NERRS,ioos:station:NOAA.NERRS:rkblhwq:1,2016-04-05T02:45:00Z,26.0257,-81.7332,601.0,1111122 
NERRS,ioos:station:NOAA.NERRS:rkblhwq:1,2016-04-05T03:45:00Z,26.0257,-81.7332,575.0,1111122 
NERRS,ioos:station:NOAA.NERRS:rkblhwq:1,2016-04-05T04:45:00Z,26.0257,-81.7332,610.0,1111122 
NERRS,ioos:station:NOAA.NERRS:rkblhwq:1,2016-04-05T05:45:00Z,26.0257,-81.7332,532.0,1111122 
NERRS,ioos:station:NOAA.NERRS:rkblhwq:1,2016-04-05T06:45:00Z,26.0257,-81.7332,584.0,1111122 
NERRS,ioos:station:NOAA.NERRS:rkblhwq:1,2016-04-05T07:45:00Z,26.0257,-81.7332,708.0,1111122 
NERRS,ioos:station:NOAA.NERRS:rkblhwq:1,2016-04-05T08:45:00Z,26.0257,-81.7332,874.0,1111122 
NERRS,ioos:station:NOAA.NERRS:rkblhwq:1,2016-04-05T17:45:00Z,26.0257,-81.7332,493.0,1111122 
NERRS,ioos:station:NOAA.NERRS:rkblhwq:1,2016-04-05T18:45:00Z,26.0257,-81.7332,875.0,1111122 
NERRS,ioos:station:NOAA.NERRS:rkblhwq:1,2016-04-05T19:45:00Z,26.0257,-81.7332,750.0,1111122 
NERRS,ioos:station:NOAA.NERRS:rkblhwq:1,2016-04-05T20:45:00Z,26.0257,-81.7332,704.0,1111122 
NERRS,ioos:station:NOAA.NERRS:rkblhwq:1,2016-04-05T21:45:00Z,26.0257,-81.7332,680.0,1111122 
NERRS,ioos:station:NOAA.NERRS:rkblhwq:1,2016-04-05T22:45:00Z,26.0257,-81.7332,660.0,1111122 
NERRS,ioos:station:NOAA.NERRS:rkblhwq:1,2016-04-05T23:45:00Z,26.0257,-81.7332,463.0,1111122 
NERRS,ioos:station:NOAA.NERRS:rkblhwq:1,2016-04-06T00:45:00Z,26.0257,-81.7332,941.0,1111122 
NERRS,ioos:station:NOAA.NERRS:rkblhwq:1,2016-04-06T01:45:00Z,26.0257,-81.7332,667.0,1111122 
NERRS,ioos:station:NOAA.NERRS:rkblhwq:1,2016-04-06T02:45:00Z,26.0257,-81.7332,650.0,1111122 
NERRS,ioos:station:NOAA.NERRS:rkblhwq:1,2016-04-06T03:45:00Z,26.0257,-81.7332,679.0,1111122 
NERRS,ioos:station:NOAA.NERRS:rkblhwq:1,2016-04-06T04:45:00Z,26.0257,-81.7332,752.0,1111122 
NERRS,ioos:station:NOAA.NERRS:rkblhwq:1,2016-04-06T05:45:00Z,26.0257,-81.7332,541.0,1111122 
NERRS,ioos:station:NOAA.NERRS:rkblhwq:1,2016-04-06T06:45:00Z,26.0257,-81.7332,612.0,1111122 
NERRS,ioos:station:NOAA.NERRS:rkblhwq:1,2016-04-06T07:45:00Z,26.0257,-81.7332,615.0,1111122 
NERRS,ioos:station:NOAA.NERRS:rkblhwq:1,2016-04-06T08:45:00Z,26.0257,-81.7332,652.0,1111122 
NERRS,ioos:station:NOAA.NERRS:rkblhwq:1,2016-04-06T09:45:00Z,26.0257,-81.7332,660.0,1111122 
NERRS,ioos:station:NOAA.NERRS:rkblhwq:1,2016-04-06T10:45:00Z,26.0257,-81.7332,522.0,1111122 
NERRS,ioos:station:NOAA.NERRS:rkblhwq:1,2016-04-06T11:45:00Z,26.0257,-81.7332,690.0,1111122 
NERRS,ioos:station:NOAA.NERRS:rkblhwq:1,2016-04-06T12:45:00Z,26.0257,-81.7332,646.0,1111122 
NERRS,ioos:station:NOAA.NERRS:rkblhwq:1,2016-04-06T13:45:00Z,26.0257,-81.7332,853.0,1111122 
NERRS,ioos:station:NOAA.NERRS:rkblhwq:1,2016-04-06T14:45:00Z,26.0257,-81.7332,597.0,1111122 
NERRS,ioos:station:NOAA.NERRS:rkblhwq:1,2016-04-06T15:45:00Z,26.0257,-81.7332,836.0,1111122 
NERRS,ioos:station:NOAA.NERRS:rkblhwq:1,2016-04-06T16:45:00Z,26.0257,-81.7332,813.0,1111122 
NERRS,ioos:station:NOAA.NERRS:rkblhwq:1,2016-04-06T17:45:00Z,26.0257,-81.7332,959.0,1111122 
NERRS,ioos:station:NOAA.NERRS:rkblhwq:1,2016-04-06T18:45:00Z,26.0257,-81.7332,972.0,1111122 
NERRS,ioos:station:NOAA.NERRS:rkblhwq:1,2016-04-06T19:45:00Z,26.0257,-81.7332,939.0,1111122 
NERRS,ioos:station:NOAA.NERRS:rkblhwq:1,2016-04-06T20:45:00Z,26.0257,-81.7332,739.0,1111122 
NERRS,ioos:station:NOAA.NERRS:rkblhwq:1,2016-04-06T21:45:00Z,26.0257,-81.7332,679.0,1111122 
NERRS,ioos:station:NOAA.NERRS:rkblhwq:1,2016-04-06T22:45:00Z,26.0257,-81.7332,789.0,1111122 
NERRS,ioos:station:NOAA.NERRS:rkblhwq:1,2016-04-06T23:45:00Z,26.0257,-81.7332,732.0,1111122 
NERRS,ioos:station:NOAA.NERRS:rkblhwq:1,2016-04-07T00:45:00Z,26.0257,-81.7332,868.0,1111122 
NERRS,ioos:station:NOAA.NERRS:rkblhwq:1,2016-04-07T01:45:00Z,26.0257,-81.7332,785.0,1111122 
NERRS,ioos:station:NOAA.NERRS:rkblhwq:1,2016-04-07T02:45:00Z,26.0257,-81.7332,811.0,1111122 
NERRS,ioos:station:NOAA.NERRS:rkblhwq:1,2016-04-07T03:45:00Z,26.0257,-81.7332,757.0,1111122 
NERRS,ioos:station:NOAA.NERRS:rkblhwq:1,2016-04-07T04:45:00Z,26.0257,-81.7332,828.0,1111122 
NERRS,ioos:station:NOAA.NERRS:rkblhwq:1,2016-04-07T05:45:00Z,26.0257,-81.7332,859.0,1111122 
NERRS,ioos:station:NOAA.NERRS:rkblhwq:1,2016-04-07T06:45:00Z,26.0257,-81.7332,763.0,1111122 
NERRS,ioos:station:NOAA.NERRS:rkblhwq:1,2016-04-07T07:45:00Z,26.0257,-81.7332,788.0,1111122 
NERRS,ioos:station:NOAA.NERRS:rkblhwq:1,2016-04-07T08:45:00Z,26.0257,-81.7332,797.0,1111122 
NERRS,ioos:station:NOAA.NERRS:rkblhwq:1,2016-04-07T09:45:00Z,26.0257,-81.7332,726.0,1111122 
NERRS,ioos:station:NOAA.NERRS:rkblhwq:1,2016-04-07T10:45:00Z,26.0257,-81.7332,797.0,1111122 
NERRS,ioos:station:NOAA.NERRS:rkblhwq:1,2016-04-07T11:45:00Z,26.0257,-81.7332,803.0,1111122 
NERRS,ioos:station:NOAA.NERRS:rkblhwq:1,2016-04-07T12:45:00Z,26.0257,-81.7332,872.0,1111122 
NERRS,ioos:station:NOAA.NERRS:rkblhwq:1,2016-04-07T13:45:00Z,26.0257,-81.7332,867.0,1111122 
NERRS,ioos:station:NOAA.NERRS:rkblhwq:1,2016-04-07T14:45:00Z,26.0257,-81.7332,845.0,1111122 
NERRS,ioos:station:NOAA.NERRS:rkblhwq:1,2016-04-07T15:45:00Z,26.0257,-81.7332,838.0,1111122 
NERRS,ioos:station:NOAA.NERRS:rkblhwq:1,2016-04-07T16:45:00Z,26.0257,-81.7332,838.0,1111122 
NERRS,ioos:station:NOAA.NERRS:rkblhwq:1,2016-04-07T17:45:00Z,26.0257,-81.7332,905.0,1111122 
NERRS,ioos:station:NOAA.NERRS:rkblhwq:1,2016-04-07T18:45:00Z,26.0257,-81.7332,790.0,1111122 
NERRS,ioos:station:NOAA.NERRS:rkblhwq:1,2016-04-07T19:45:00Z,26.0257,-81.7332,971.0,1111122 
NERRS,ioos:station:NOAA.NERRS:rkblhwq:1,2016-04-07T20:45:00Z,26.0257,-81.7332,883.0,1111122 
NERRS,ioos:station:NOAA.NERRS:rkblhwq:1,2016-04-07T21:45:00Z,26.0257,-81.7332,930.0,1111122 
NERRS,ioos:station:NOAA.NERRS:rkblhwq:1,2016-04-07T22:45:00Z,26.0257,-81.7332,1046.0,1111122 
NERRS,ioos:station:NOAA.NERRS:rkblhwq:1,2016-04-07T23:45:00Z,26.0257,-81.7332,940.0,1111122 
NERRS,ioos:station:NOAA.NERRS:rkblhwq:1,2016-04-08T00:45:00Z,26.0257,-81.7332,811.0,1111122 
NERRS,ioos:station:NOAA.NERRS:rkblhwq:1,2016-04-08T01:45:00Z,26.0257,-81.7332,857.0,1111122 
NERRS,ioos:station:NOAA.NERRS:rkblhwq:1,2016-04-08T02:45:00Z,26.0257,-81.7332,932.0,1111122 
NERRS,ioos:station:NOAA.NERRS:rkblhwq:1,2016-04-08T03:45:00Z,26.0257,-81.7332,932.0,1111122 
NERRS,ioos:station:NOAA.NERRS:rkblhwq:1,2016-04-08T04:45:00Z,26.0257,-81.7332,951.0,1111122 
NERRS,ioos:station:NOAA.NERRS:rkblhwq:1,2016-04-08T05:45:00Z,26.0257,-81.7332,904.0,1111122 
NERRS,ioos:station:NOAA.NERRS:rkblhwq:1,2016-04-08T06:45:00Z,26.0257,-81.7332,806.0,1111122 
NERRS,ioos:station:NOAA.NERRS:rkblhwq:1,2016-04-08T07:45:00Z,26.0257,-81.7332,789.0,1111122 
NERRS,ioos:station:NOAA.NERRS:rkblhwq:1,2016-04-08T08:45:00Z,26.0257,-81.7332,792.0,1111122 
NERRS,ioos:station:NOAA.NERRS:rkblhwq:1,2016-04-08T09:45:00Z,26.0257,-81.7332,853.0,1111122 
NERRS,ioos:station:NOAA.NERRS:rkblhwq:1,2016-04-08T10:45:00Z,26.0257,-81.7332,827.0,1111122 
NERRS,ioos:station:NOAA.NERRS:rkblhwq:1,2016-04-08T11:45:00Z,26.0257,-81.7332,765.0,1111122 
NERRS,ioos:station:NOAA.NERRS:rkblhwq:1,2016-04-08T12:45:00Z,26.0257,-81.7332,718.0,1111122 
NERRS,ioos:station:NOAA.NERRS:rkblhwq:1,2016-04-08T13:45:00Z,26.0257,-81.7332,763.0,1111122 
NERRS,ioos:station:NOAA.NERRS:rkblhwq:1,2016-04-08T14:45:00Z,26.0257,-81.7332,822.0,1111122 
NERRS,ioos:station:NOAA.NERRS:rkblhwq:1,2016-04-08T15:45:00Z,26.0257,-81.7332,723.0,1111122 
NERRS,ioos:station:NOAA.NERRS:rkblhwq:1,2016-04-08T16:45:00Z,26.0257,-81.7332,798.0,1111122 
NERRS,ioos:station:NOAA.NERRS:rkblhwq:1,2016-04-08T17:45:00Z,26.0257,-81.7332,901.0,1111122 
NERRS,ioos:station:NOAA.NERRS:rkblhwq:1,2016-04-08T18:45:00Z,26.0257,-81.7332,915.0,1111122 
NERRS,ioos:station:NOAA.NERRS:rkblhwq:1,2016-04-08T19:45:00Z,26.0257,-81.7332,769.0,1111122 
NERRS,ioos:station:NOAA.NERRS:rkblhwq:1,2016-04-08T20:45:00Z,26.0257,-81.7332,800.0,1111122 
NERRS,ioos:station:NOAA.NERRS:rkblhwq:1,2016-04-08T21:45:00Z,26.0257,-81.7332,712.0,1111122 
NERRS,ioos:station:NOAA.NERRS:rkblhwq:1,2016-04-08T22:45:00Z,26.0257,-81.7332,857.0,1111122 
NERRS,ioos:station:NOAA.NERRS:rkblhwq:1,2016-04-08T23:45:00Z,26.0257,-81.7332,891.0,1111122 
NERRS,ioos:station:NOAA.NERRS:rkblhwq:1,2016-04-09T00:45:00Z,26.0257,-81.7332,866.0,1111122 
NERRS,ioos:station:NOAA.NERRS:rkblhwq:1,2016-04-09T01:45:00Z,26.0257,-81.7332,849.0,1111122 
NERRS,ioos:station:NOAA.NERRS:rkblhwq:1,2016-04-09T02:45:00Z,26.0257,-81.7332,1002.0,1111122 
NERRS,ioos:station:NOAA.NERRS:rkblhwq:1,2016-04-09T03:45:00Z,26.0257,-81.7332,1096.0,1111122 
NERRS,ioos:station:NOAA.NERRS:rkblhwq:1,2016-04-09T04:45:00Z,26.0257,-81.7332,1100.0,1111122 
NERRS,ioos:station:NOAA.NERRS:rkblhwq:1,2016-04-09T05:45:00Z,26.0257,-81.7332,1029.0,1111122 
NERRS,ioos:station:NOAA.NERRS:rkblhwq:1,2016-04-09T06:45:00Z,26.0257,-81.7332,1060.0,1111122 
NERRS,ioos:station:NOAA.NERRS:rkblhwq:1,2016-04-09T07:45:00Z,26.0257,-81.7332,989.0,1111122 
NERRS,ioos:station:NOAA.NERRS:rkblhwq:1,2016-04-09T08:45:00Z,26.0257,-81.7332,1041.0,1111122 
NERRS,ioos:station:NOAA.NERRS:rkblhwq:1,2016-04-09T09:45:00Z,26.0257,-81.7332,1016.0,1111122 
NERRS,ioos:station:NOAA.NERRS:rkblhwq:1,2016-04-09T10:45:00Z,26.0257,-81.7332,1135.0,1111122 
NERRS,ioos:station:NOAA.NERRS:rkblhwq:1,2016-04-09T11:45:00Z,26.0257,-81.7332,1005.0,1111122 
NERRS,ioos:station:NOAA.NERRS:rkblhwq:1,2016-04-09T12:45:00Z,26.0257,-81.7332,990.0,1111122 
NERRS,ioos:station:NOAA.NERRS:rkblhwq:1,2016-04-09T13:45:00Z,26.0257,-81.7332,1079.0,1111122 
NERRS,ioos:station:NOAA.NERRS:rkblhwq:1,2016-04-09T14:45:00Z,26.0257,-81.7332,1080.0,1111122 
NERRS,ioos:station:NOAA.NERRS:rkblhwq:1,2016-04-09T15:45:00Z,26.0257,-81.7332,1030.0,1111122 
NERRS,ioos:station:NOAA.NERRS:rkblhwq:1,2016-04-09T16:45:00Z,26.0257,-81.7332,1085.0,1111122 
NERRS,ioos:station:NOAA.NERRS:rkblhwq:1,2016-04-09T17:45:00Z,26.0257,-81.7332,926.0,1111122 
NERRS,ioos:station:NOAA.NERRS:rkblhwq:1,2016-04-09T18:45:00Z,26.0257,-81.7332,995.0,1111122 
NERRS,ioos:station:NOAA.NERRS:rkblhwq:1,2016-04-09T19:45:00Z,26.0257,-81.7332,943.0,1111122 
NERRS,ioos:station:NOAA.NERRS:rkblhwq:1,2016-04-09T20:45:00Z,26.0257,-81.7332,1147.0,1111122 
NERRS,ioos:station:NOAA.NERRS:rkblhwq:1,2016-04-09T21:45:00Z,26.0257,-81.7332,1013.0,1111122 
NERRS,ioos:station:NOAA.NERRS:rkblhwq:1,2016-04-09T22:45:00Z,26.0257,-81.7332,1106.0,1111122 
NERRS,ioos:station:NOAA.NERRS:rkblhwq:1,2016-04-09T23:45:00Z,26.0257,-81.7332,1077.0,1111122 
NERRS,ioos:station:NOAA.NERRS:rkblhwq:1,2016-04-10T00:45:00Z,26.0257,-81.7332,1143.0,1111122 
NERRS,ioos:station:NOAA.NERRS:rkblhwq:1,2016-04-10T01:45:00Z,26.0257,-81.7332,1135.0,1111122 
NERRS,ioos:station:NOAA.NERRS:rkblhwq:1,2016-04-10T02:45:00Z,26.0257,-81.7332,1141.0,1111122 
NERRS,ioos:station:NOAA.NERRS:rkblhwq:1,2016-04-10T03:45:00Z,26.0257,-81.7332,1138.0,1111122 
NERRS,ioos:station:NOAA.NERRS:rkblhwq:1,2016-04-10T04:45:00Z,26.0257,-81.7332,1136.0,1111122 
NERRS,ioos:station:NOAA.NERRS:rkblhwq:1,2016-04-10T05:45:00Z,26.0257,-81.7332,1132.0,1111122 
NERRS,ioos:station:NOAA.NERRS:rkblhwq:1,2016-04-10T06:45:00Z,26.0257,-81.7332,1130.0,1111122 
NERRS,ioos:station:NOAA.NERRS:rkblhwq:1,2016-04-10T07:45:00Z,26.0257,-81.7332,1129.0,1111122 
NERRS,ioos:station:NOAA.NERRS:rkblhwq:1,2016-04-10T08:45:00Z,26.0257,-81.7332,1127.0,1111122 
NERRS,ioos:station:NOAA.NERRS:rkblhwq:1,2016-04-10T09:45:00Z,26.0257,-81.7332,1125.0,1111122 
NERRS,ioos:station:NOAA.NERRS:rkblhwq:1,2016-04-10T10:45:00Z,26.0257,-81.7332,1124.0,1111122 
NERRS,ioos:station:NOAA.NERRS:rkblhwq:1,2016-04-10T11:45:00Z,26.0257,-81.7332,1122.0,1111122 
NERRS,ioos:station:NOAA.NERRS:rkblhwq:1,2016-04-10T12:45:00Z,26.0257,-81.7332,1121.0,1111122 
NERRS,ioos:station:NOAA.NERRS:rkblhwq:1,2016-04-10T13:45:00Z,26.0257,-81.7332,1121.0,1111122 
NERRS,ioos:station:NOAA.NERRS:rkblhwq:1,2016-04-10T14:45:00Z,26.0257,-81.7332,1123.0,1111122 
NERRS,ioos:station:NOAA.NERRS:rkblhwq:1,2016-04-10T15:45:00Z,26.0257,-81.7332,1127.0,1111122 
NERRS,ioos:station:NOAA.NERRS:rkblhwq:1,2016-04-10T16:45:00Z,26.0257,-81.7332,1130.0,1111122 
NERRS,ioos:station:NOAA.NERRS:rkblhwq:1,2016-04-10T17:45:00Z,26.0257,-81.7332,1134.0,1111122 
NERRS,ioos:station:NOAA.NERRS:rkblhwq:1,2016-04-10T18:45:00Z,26.0257,-81.7332,1136.0,1111122 
NERRS,ioos:station:NOAA.NERRS:rkblhwq:1,2016-04-10T21:45:00Z,26.0257,-81.7332,1139.0,1111122 
NERRS,ioos:station:NOAA.NERRS:rkblhwq:1,2016-04-10T22:45:00Z,26.0257,-81.7332,1140.0,1111122 
NERRS,ioos:station:NOAA.NERRS:rkblhwq:1,2016-04-10T23:45:00Z,26.0257,-81.7332,1139.0,1111122 
NERRS,ioos:station:NOAA.NERRS:rkblhwq:1,2016-04-11T00:45:00Z,26.0257,-81.7332,1138.0,1111122 
NERRS,ioos:station:NOAA.NERRS:rkblhwq:1,2016-04-11T01:45:00Z,26.0257,-81.7332,1138.0,1111122 
NERRS,ioos:station:NOAA.NERRS:rkblhwq:1,2016-04-11T02:45:00Z,26.0257,-81.7332,1136.0,1111122 
NERRS,ioos:station:NOAA.NERRS:rkblhwq:1,2016-04-11T03:45:00Z,26.0257,-81.7332,1134.0,1111122 
NERRS,ioos:station:NOAA.NERRS:rkblhwq:1,2016-04-11T04:45:00Z,26.0257,-81.7332,1131.0,1111122 
NERRS,ioos:station:NOAA.NERRS:rkblhwq:1,2016-04-11T05:45:00Z,26.0257,-81.7332,1129.0,1111122 
NERRS,ioos:station:NOAA.NERRS:rkblhwq:1,2016-04-11T06:45:00Z,26.0257,-81.7332,1127.0,1111122 
NERRS,ioos:station:NOAA.NERRS:rkblhwq:1,2016-04-11T07:45:00Z,26.0257,-81.7332,1126.0,1111122 
NERRS,ioos:station:NOAA.NERRS:rkblhwq:1,2016-04-11T08:45:00Z,26.0257,-81.7332,1125.0,1111122 
NERRS,ioos:station:NOAA.NERRS:rkblhwq:1,2016-04-11T09:45:00Z,26.0257,-81.7332,1123.0,1111122 
NERRS,ioos:station:NOAA.NERRS:rkblhwq:1,2016-04-11T10:45:00Z,26.0257,-81.7332,1123.0,1111122 
NERRS,ioos:station:NOAA.NERRS:rkblhwq:1,2016-04-11T11:45:00Z,26.0257,-81.7332,1123.0,1111122 
NERRS,ioos:station:NOAA.NERRS:rkblhwq:1,2016-04-11T12:45:00Z,26.0257,-81.7332,1121.0,1111122 
NERRS,ioos:station:NOAA.NERRS:rkblhwq:1,2016-04-11T13:45:00Z,26.0257,-81.7332,1122.0,1111122 
NERRS,ioos:station:NOAA.NERRS:rkblhwq:1,2016-04-11T14:45:00Z,26.0257,-81.7332,1125.0,1111122 
NERRS,ioos:station:NOAA.NERRS:rkblhwq:1,2016-04-11T15:45:00Z,26.0257,-81.7332,1127.0,1111122 
NERRS,ioos:station:NOAA.NERRS:rkblhwq:1,2016-04-11T16:45:00Z,26.0257,-81.7332,1132.0,1111122 
NERRS,ioos:station:NOAA.NERRS:rkblhwq:1,2016-04-11T18:45:00Z,26.0257,-81.7332,5.0,1111122 
NERRS,ioos:station:NOAA.NERRS:rkblhwq:1,2016-04-11T19:45:00Z,26.0257,-81.7332,5.0,1111122 
NERRS,ioos:station:NOAA.NERRS:rkblhwq:1,2016-04-11T20:45:00Z,26.0257,-81.7332,5.0,1111122 
NERRS,ioos:station:NOAA.NERRS:rkblhwq:1,2016-04-11T21:45:00Z,26.0257,-81.7332,4.0,1111122 
NERRS,ioos:station:NOAA.NERRS:rkblhwq:1,2016-04-11T22:45:00Z,26.0257,-81.7332,6.0,1111122 
NERRS,ioos:station:NOAA.NERRS:rkblhwq:1,2016-04-11T23:45:00Z,26.0257,-81.7332,20.0,1111122 
NERRS,ioos:station:NOAA.NERRS:rkblhwq:1,2016-04-12T00:45:00Z,26.0257,-81.7332,8.0,1111122 
NERRS,ioos:station:NOAA.NERRS:rkblhwq:1,2016-04-12T01:45:00Z,26.0257,-81.7332,7.0,1111122 
NERRS,ioos:station:NOAA.NERRS:rkblhwq:1,2016-04-12T02:45:00Z,26.0257,-81.7332,9.0,1111122 
NERRS,ioos:station:NOAA.NERRS:rkblhwq:1,2016-04-12T03:45:00Z,26.0257,-81.7332,8.0,1111122 